Simultaneous Nadir Overpasses (SNOs) Predictions

Prediction of SNOs between AQUA and METOP-B Satellite Orbit:

Table of predicted SNOs for the next 14.0 days since TLE Epoch: 4/5/2025
Index Date (AQUA) Time (AQUA) Lat,Lon (AQUA) SZA (AQUA ) Date (METOP-B) Time (METOP-B) Lat,Lon (METOP-B) SZA (METOP-B ) Distance(km) Time Diff (sec)
1 04/06/2025 22:14:49 77.16,-154.71 70.28 04/06/2025 22:13:39 77.15,-154.80 70.27 2.89 70
2 04/06/2025 23:04:08 -77.22, 12.75 109.68 04/06/2025 23:04:19 -77.20, 12.76 109.70 1.94 11
3 04/09/2025 11:03:33 77.19, 13.08 69.36 04/09/2025 11:02:38 77.17, 13.00 69.34 3.28 55
4 04/09/2025 11:52:52 -77.24,-179.46 110.61 04/09/2025 11:53:18 -77.22,-179.44 110.62 2.31 26
5 04/11/2025 23:52:15 77.22,-179.16 68.46 04/11/2025 23:51:36 77.22,-179.07 68.45 2.12 39
6 04/12/2025 00:41:33 -77.23, -11.51 111.55 04/12/2025 00:42:17 -77.23, -11.68 111.55 4.19 44
7 04/14/2025 12:40:54 77.21, -11.23 67.53 04/14/2025 12:40:35 77.21, -11.38 67.53 3.73 19
8 04/14/2025 13:30:13 -77.27, 156.24 112.43 04/14/2025 13:31:15 -77.27, 156.21 112.43 0.73 62
9 04/17/2025 00:40:09 -77.07, -10.42 113.51 04/17/2025 00:38:59 -76.96, -11.98 113.60 40.71 70
10 04/17/2025 01:29:32 77.26, 156.49 66.68 04/17/2025 01:29:33 77.23, 156.45 66.65 3.25 1



Historial Predications of SNOs between AQUA and METOP-B
